[[{"header":{"parameterUnit":"m.s-1","parameterCategory":1,"la1":30.2991,"la2":30.254,"lo1":-89.0895,"lo2":-89.0444,"dy":0.0017,"dx":0.0017,"nx":28,"ny":28,"refTime":"2025-06-17T03:00:00:Z","depth":0,"parameterNumber":2,"parameterNumberName":"U-component_of_WINDS"},"data":[0,0,0,0,0,0,0,0,0,0,0,0,0,0,0,0,0,0,0,0,0,0,0,0,0,0,0,0,0,0,0,0,0,0,0,0,0,0,0,0,0,0,0,0,0,0,0,0,0,0,0,0,0,0,0,0,0,0,1.6568,1.6574,0,1.7176,1.7183,1.719,1.7482,1.7482,1.7481,1.7481,1.8087,1.8103,1.8119,0,0,0,0,0,0,0,0,0,0,0,0,0,1.564,1.5656,1.6567,1.6575,1.6582,1.7175,1.7184,1.7192,1.7482,1.7482,1.7481,1.7481,1.8082,1.8101,1.812,0,0,0,0,0,0,0,0,0,0,0,0,0,1.6124,1.5661,1.6566,1.6799,1.6826,1.7174,1.7184,1.7194,1.7482,1.7482,1.7481,1.7481,1.8075,1.8099,1.8123,1.8279,0,0,1.8198,1.8208,0,0,0,0,0,0,0,0,1.6096,1.6158,1.6757,1.6784,1.6814,1.7253,1.7079,1.7557,1.7482,1.7232,1.7481,1.7481,1.7809,1.7855,1.7969,1.8308,1.8334,1.82,1.8215,1.8225,1.8232,0,0,0,0,0,0,0,1.6063,1.6133,1.6808,1.6765,1.68,1.6868,1.6937,1.7171,1.7514,1.7254,1.7277,1.7346,1.7824,1.7945,1.7986,1.8343,1.8199,1.8221,1.8236,1.8246,1.8841,1.8842,0,0,0,0,0,0,1.5993,1.6104,1.6788,1.6826,1.6448,1.6885,1.6962,1.7112,1.7512,1.7573,1.7345,1.7357,1.7903,1.7957,1.8008,1.822,1.8225,1.8248,1.8262,1.884,1.8841,1.8843,0,0,0,0,0,0,1.5972,1.6052,1.6764,1.6472,1.6568,1.6901,1.7068,1.7124,1.7246,1.7582,1.7642,1.7407,1.7905,1.7974,1.8212,1.8245,1.8259,1.8281,1.8839,1.884,1.8842,1.8642,0,0,0,0,0,0,1.5945,1.6043,1.6109,1.6471,1.6582,1.6961,1.707,1.7137,1.729,1.7311,1.7656,1.7712,1.791,1.8173,1.8236,1.8279,1.83,1.8837,1.8839,1.8841,1.8647,1.8637,1.8628,0,0,0,0,0,1.591,1.6024,1.6111,1.6192,1.6673,1.6963,1.7026,1.7257,1.7291,1.7359,1.7574,1.7701,1.823,1.8195,1.8268,1.8318,1.8836,1.8839,1.8841,1.8651,1.8639,1.8628,0,0,0,0,0,0,1.5651,1.6076,1.6177,1.6412,1.665,1.7012,1.7104,1.7235,1.7463,1.7473,1.7744,1.7819,1.8032,1.8199,1.8152,1.8491,1.8545,1.8562,1.8376,1.8366,1.8357,1.8312,1.8321,0,0,0,0,0,1.5622,1.5828,1.6185,1.6358,1.6473,1.6767,1.6902,1.706,1.7314,1.7414,1.7648,1.7885,1.8106,1.8245,1.8466,1.8672,1.8751,1.8742,1.8732,1.8722,1.8734,1.8857,1.8857,1.8851,1.8851,1.8851,0,0,1.5563,1.5821,1.5932,1.6313,1.6516,1.6718,1.685,1.7057,1.7209,1.7444,1.7687,1.7864,1.8147,1.837,1.848,1.8515,1.8753,1.8726,1.8715,1.8734,1.8859,1.886,1.886,1.8853,1.8853,1.8852,0,0,1.556,1.5775,1.5945,1.6146,1.6454,1.6649,1.6688,1.7032,1.7162,1.741,1.7591,1.7771,1.8145,1.8341,1.8488,1.8558,1.8684,1.8622,1.8571,1.8687,1.8688,1.869,1.8716,1.8722,1.8632,1.8632,1.8631,0,1.5446,1.5764,1.6013,1.6214,1.6374,1.6602,1.6773,1.6955,1.7315,1.7419,1.7455,1.7931,1.8137,1.8409,1.8427,1.8538,1.859,1.8585,1.8669,1.8673,1.8678,1.8706,1.8715,1.8622,1.8623,1.8624,1.8625,0,1.5609,1.5826,1.5924,1.6275,1.6447,1.663,1.6903,1.7045,1.7187,1.7376,1.7624,1.788,1.8158,1.8234,1.8371,1.8526,1.8539,1.8617,1.8678,1.8665,1.8697,1.8709,1.8609,1.8612,1.8615,1.8617,0,0,1.546,1.5948,1.598,1.6143,1.6499,1.6669,1.686,1.7139,1.7256,1.7496,1.7663,1.7975,1.8051,1.8218,1.838,1.8481,1.8522,1.8549,1.8559,1.8536,1.8709,1.8649,1.8658,1.8607,1.861,1.8612,1.8686,0,1.5507,1.587,1.61,1.6368,1.6571,1.6791,1.6958,1.7192,1.7373,1.7568,1.7766,1.7984,1.8068,1.8171,1.8281,1.8493,1.8561,1.8491,1.8762,1.8769,1.8687,1.8674,1.8611,1.8669,1.87,1.8702,1.8703,0,1.5611,1.5853,1.6143,1.648,1.6573,1.672,1.6995,1.7179,1.7447,1.7572,1.7759,1.7924,1.8132,1.8172,1.8462,1.8409,1.8533,1.8653,1.8661,1.8697,1.8736,1.871,1.8693,1.8701,1.8725,1.8723,1.8721,0,1.5474,1.5872,1.6099,1.623,1.6627,1.6726,1.6894,1.7164,1.7316,1.7553,1.7655,1.7909,1.8048,1.824,1.8467,1.8476,1.8733,1.8792,1.8841,1.8835,1.8886,1.888,1.8889,1.8961,1.8961,1.8961,1.8961,0,1.5504,1.5673,1.6044,1.6182,1.6377,1.6637,1.6822,1.7008,1.7245,1.7421,1.7623,1.7782,1.8073,1.8266,1.8444,1.8657,1.8717,1.8822,1.8867,1.8806,1.8792,1.8891,1.8894,1.8964,1.8963,1.8963,1.8962,0,1.5385,1.564,1.5902,1.6258,1.6351,1.6479,1.6782,1.6923,1.7116,1.7336,1.7402,1.7703,1.7942,1.8189,1.8509,1.8629,1.8836,1.8898,1.8747,1.8773,1.8809,1.8802,1.8883,1.8908,1.8959,1.8958,1.8958,0,1.5388,1.5525,1.5897,1.6033,1.6199,1.6413,1.6573,1.6832,1.6988,1.7305,1.7407,1.7663,1.7881,1.8251,1.8496,1.8742,1.8812,1.8824,1.885,1.8784,1.8815,1.8805,1.882,1.8814,1.8812,1.881,1.8809,0,1.5366,1.5487,1.5711,1.598,1.6166,1.6388,1.6617,1.6715,1.7018,1.7182,1.7433,1.7603,1.7934,1.8184,1.8461,1.863,1.8769,1.8799,1.8824,1.8762,1.8671,1.8723,1.8723,1.8796,1.8797,1.8798,1.8799,1.88,1.5311,1.5443,1.5728,1.5971,1.6172,1.6382,1.6534,1.6748,1.6963,1.7258,1.7396,1.7647,1.7911,1.8299,1.8464,1.8661,1.87,1.8735,1.8744,1.8749,1.8735,1.8638,1.8711,1.8712,1.8713,1.8713,1.8714,0,1.5301,1.5496,1.5717,1.6035,1.6225,1.6346,1.6607,1.6756,1.6977,1.7215,1.7428,1.7715,1.7959,1.8223,1.8482,1.8589,1.8659,1.8648,1.8643,1.868,1.8684,1.8639,1.8587,1.8587,1.8587,1.8587,1.8587,1.8587,1.5318,1.555,1.5703,1.6035,1.6228,1.6481,1.6619,1.6813,1.7005,1.7319,1.7526,1.7699,1.7947,1.8226,1.8455,1.8526,1.8612,1.8582,1.8671,1.867,1.868,1.8689,1.8647,1.8599,1.8599,1.8652,1.8653,1.8653]},{"header":{"parameterUnit":"m.s-1","parameterCategory":1,"la1":30.2991,"la2":30.254,"lo1":-89.0895,"lo2":-89.0444,"dy":0.0017,"dx":0.0017,"nx":28,"ny":28,"refTime":"2025-06-17T03:00:00:Z","depth":0,"parameterNumber":3,"parameterNumberName":"V-component_of_WINDS"},"data":[0,0,0,0,0,0,0,0,0,0,0,0,0,0,0,0,0,0,0,0,0,0,0,0,0,0,0,0,0,0,0,0,0,0,0,0,0,0,0,0,0,0,0,0,0,0,0,0,0,0,0,0,0,0,0,0,0,0,5.5894,5.5897,0,5.6186,5.619,5.6193,5.6373,5.6374,5.6375,5.6376,5.6656,5.6662,5.6668,0,0,0,0,0,0,0,0,0,0,0,0,0,5.5472,5.5479,5.5894,5.5898,5.5901,5.6186,5.619,5.6194,5.6373,5.6374,5.6375,5.6376,5.6653,5.6661,5.6669,0,0,0,0,0,0,0,0,0,0,0,0,0,5.5698,5.5481,5.5893,5.6026,5.604,5.6185,5.619,5.6195,5.6373,5.6374,5.6376,5.6377,5.6651,5.666,5.667,5.67,0,0,5.67,5.6704,0,0,0,0,0,0,0,0,5.5685,5.5714,5.6003,5.6017,5.6034,5.6245,5.6144,5.6363,5.6372,5.6246,5.6376,5.6378,5.6516,5.6537,5.6588,5.6713,5.6725,5.6701,5.6706,5.6711,5.6713,0,0,0,0,0,0,0,5.5669,5.5702,5.6009,5.6006,5.6025,5.6064,5.6098,5.6186,5.6368,5.6257,5.6271,5.6304,5.6525,5.6578,5.6596,5.6729,5.67,5.6709,5.6715,5.6719,5.6889,5.6888,0,0,0,0,0,0,5.5636,5.5688,5.6,5.6018,5.586,5.607,5.6108,5.6175,5.6368,5.6399,5.6302,5.6311,5.6561,5.6584,5.6606,5.6653,5.6711,5.672,5.6725,5.6891,5.6889,5.6888,0,0,0,0,0,0,5.5626,5.5662,5.5988,5.5857,5.5902,5.6076,5.615,5.618,5.6234,5.6403,5.6434,5.6325,5.6563,5.6593,5.6676,5.6665,5.6724,5.6733,5.6892,5.689,5.6888,5.6745,0,0,0,0,0,0,5.5613,5.5657,5.5675,5.5856,5.5908,5.6058,5.615,5.6185,5.6253,5.6267,5.6432,5.646,5.6567,5.666,5.6686,5.6679,5.6741,5.6894,5.6891,5.6889,5.6752,5.6739,5.6728,0,0,0,0,0,5.5597,5.5619,5.5675,5.5712,5.5935,5.6057,5.6086,5.6213,5.6251,5.6267,5.6375,5.6455,5.6662,5.6667,5.6697,5.6694,5.6895,5.6892,5.6889,5.6757,5.6741,5.6728,0,0,0,0,0,0,5.5426,5.5646,5.571,5.5793,5.5906,5.6088,5.6112,5.6193,5.6292,5.6301,5.6449,5.6484,5.6551,5.6631,5.6633,5.6731,5.6787,5.679,5.6677,5.6663,5.6651,5.6629,5.6749,0,0,0,0,0,5.5399,5.5486,5.5671,5.5725,5.578,5.5936,5.5994,5.6083,5.6203,5.6249,5.6364,5.6472,5.6562,5.6617,5.6709,5.6765,5.68,5.6776,5.6764,5.6753,5.6753,5.6785,5.6775,5.6878,5.6878,5.6878,0,0,5.5341,5.5472,5.5517,5.5695,5.5793,5.5873,5.5974,5.6056,5.6116,5.626,5.6347,5.6434,5.6564,5.6633,5.6669,5.6701,5.6733,5.675,5.674,5.6746,5.6781,5.6771,5.6762,5.6876,5.6876,5.6876,0,0,5.5278,5.5388,5.5446,5.5543,5.5692,5.5796,5.5809,5.5979,5.6045,5.6136,5.6245,5.6314,5.6467,5.6555,5.6619,5.6588,5.6663,5.6613,5.6548,5.6578,5.657,5.6563,5.6549,5.6543,5.6613,5.6612,5.6612,0,5.5186,5.532,5.5462,5.5539,5.5611,5.5752,5.5807,5.5892,5.606,5.6104,5.614,5.6334,5.6431,5.6521,5.6514,5.6562,5.6577,5.6594,5.6561,5.6556,5.6551,5.6539,5.6534,5.6605,5.6606,5.6607,5.6607,0,5.5197,5.5287,5.5314,5.5481,5.5556,5.562,5.5767,5.5825,5.5906,5.6004,5.6091,5.6214,5.6332,5.6361,5.6439,5.6461,5.6476,5.6534,5.6593,5.6532,5.6523,5.652,5.6595,5.6597,5.66,5.6601,0,0,5.5034,5.528,5.5287,5.5363,5.5538,5.5606,5.5675,5.5797,5.5842,5.5952,5.601,5.6135,5.6191,5.6263,5.6352,5.6378,5.6342,5.6433,5.6438,5.6409,5.6369,5.6323,5.6315,5.6395,5.6394,5.6394,5.6357,0,5.4994,5.5133,5.5262,5.535,5.5432,5.5566,5.5625,5.5735,5.5827,5.5905,5.6005,5.6091,5.6159,5.6203,5.6236,5.634,5.6335,5.6344,5.6443,5.6445,5.6404,5.6312,5.6263,5.6222,5.6355,5.6355,5.6354,0,5.4968,5.5079,5.5176,5.5342,5.5381,5.5433,5.5554,5.5629,5.5753,5.5818,5.59,5.5995,5.6067,5.612,5.6218,5.6221,5.6269,5.6326,5.6327,5.6339,5.6394,5.6317,5.6213,5.6205,5.6351,5.6351,5.6351,0,5.4834,5.5008,5.5089,5.515,5.5346,5.5378,5.546,5.5588,5.5652,5.5755,5.5797,5.5905,5.5962,5.6041,5.616,5.6188,5.6244,5.6307,5.6295,5.6291,5.6298,5.6295,5.6197,5.6333,5.6333,5.6333,5.6333,0,5.4776,5.4829,5.5032,5.508,5.5142,5.5289,5.5344,5.5436,5.5548,5.5613,5.5734,5.579,5.5946,5.6019,5.6112,5.6177,5.6202,5.6252,5.6276,5.624,5.6233,5.6271,5.6276,5.6332,5.6332,5.6332,5.6333,0,5.4637,5.4776,5.4872,5.5051,5.5097,5.5134,5.5284,5.5333,5.5433,5.5513,5.554,5.5694,5.5787,5.5915,5.6044,5.6107,5.6157,5.6197,5.6117,5.613,5.6109,5.6108,5.6029,5.6024,5.6165,5.6164,5.6162,0,5.4589,5.4634,5.4819,5.4875,5.4954,5.5041,5.5109,5.5252,5.5316,5.5462,5.5491,5.5595,5.5685,5.5825,5.5944,5.6043,5.6084,5.6049,5.6099,5.6061,5.6079,5.6074,5.6077,5.6036,5.6033,5.6032,5.603,0,5.4488,5.4555,5.4651,5.477,5.4849,5.4948,5.5052,5.5088,5.5253,5.5317,5.5417,5.5487,5.5622,5.572,5.5836,5.5913,5.5996,5.6015,5.6016,5.5978,5.5929,5.5952,5.608,5.6015,5.6016,5.6017,5.6018,5.6019,5.4392,5.4437,5.4575,5.4677,5.4772,5.4866,5.4921,5.503,5.5117,5.5242,5.532,5.5414,5.5535,5.57,5.5773,5.5844,5.5878,5.5881,5.5882,5.5879,5.5865,5.5921,5.5866,5.5867,5.5867,5.5868,5.5868,0,5.4294,5.439,5.4483,5.4628,5.4706,5.4785,5.4904,5.4962,5.5046,5.5155,5.5242,5.5353,5.545,5.5578,5.5681,5.5713,5.5754,5.5735,5.5732,5.5748,5.5831,5.5818,5.5701,5.5701,5.5701,5.5701,5.5701,5.5701,5.4253,5.4333,5.4415,5.4542,5.4636,5.4734,5.4795,5.488,5.4968,5.5089,5.5172,5.5257,5.5371,5.5485,5.5574,5.5609,5.5639,5.5608,5.5653,5.5728,5.5742,5.5757,5.5745,5.5615,5.5614,5.5564,5.5564,5.5563]}]]